星链-37493(STARLINK-37493)

导读

STARLINK-37493(NORAD编号68910)是SpaceX星链星座中的一颗卫星,属于星链第二代卫星,用于提供全球卫星互联网服务。星链星座旨在为全球偏远地区和网络基础设施匮乏区域提供高速低延迟互联网接入,该卫星继承了星链卫星的典型配置,配备氩气离子推进系统用于轨道机动与脱轨,搭载相控阵天线实现高带宽连接,依靠太阳能电池阵列供电,目前在近地轨道运行,服务全球数百万星链用户。

基本信息
目录编号:
68910
目录名称:
STARLINK-37493
国际标识:
2026-097R
轨道中心:
EARTH
卫星名称:
星链-37493
卫星全名:
星链-37493(STARLINK-37493)
卫星状态:
在轨 (已飞行128 天)
发射日期:
2026-04-30 UTC
国别 :
美国 (US)
星等 :
--
轨道信息
数据来源 国际轨道数据
星历时间: 2026-09-04T20:48:10+0800
22小时前
查看轨道信息
半长轴: 6843.672km
偏心率: 0.0001978
轨道倾角: 97.285°
近地点辐角 84.016°
升交点赤经 81.882°
平近点角 276.131°
近地点: 464.181km
远地点: 466.889km
周期: 93.906分钟
每日圈数: 15.334479
详细信息
固有亮度:
5
最大亮度:
2.5
卫星平台:
Starlink V1.0
覆盖范围:
全球
运营商:
太空探索技术公司
运营商所在国:
美国
制造商(研发单位):
太空探索技术公司
制造商所在国:
美国
使用方式:
暂无
卫星简介
Starlink 计划是 SpaceX 推出的全球卫星互联网项目,通过发射低轨道卫星,为全球尤其是偏远地区提供高速、低延迟的互联网服务。自 2019 年起,Starlink 已部署数千颗卫星,旨在缩小全球数字鸿沟,推动互联网普及。该项目还为军事、航空等行业提供通信支持,带来广泛经济效益。
2D轨道图
3D轨道图
轨道高度分析图
轨道倾角分析图
轨道综合分析图
查看轨道综合分析图
交会数据列表
事件ID 空间交会对象 最接近时刻(TCA) 交会距离 交会风险概率(CRP) 交会风险指数(CRI) 操作
CDM_260907-122606-538806-891021
2026-09-07T
12:26:29+0000
0.388 km
远距离
1.76415E-4 高风险 0.8
CDM_260906-181406-218106-891021
2026-09-06T
18:14:21+0000
0.461 km
远距离
1.30928E-4 高风险 0.77
CDM_260908-014704-302406-891021
2026-09-08T
01:47:39+0000
0.944 km
远距离
2.628974E-5 中风险 0.63
CDM_260907-131306-538806-891021
2026-09-07T
13:13:28+0000
1.357 km
极远距离
3.976365E-6 低风险 0.47
CDM_260906-045506-218106-891021
2026-09-06T
04:55:01+0000
1.923 km
极远距离
1.570755E-6 低风险 0.39